Wind_Speed
35 35 36 37 36 36 38 40 43 43 44 44 46 48 48 48 49 49 50 50 50 50 50 49 49 48 48 48 48 48 49 51 53 54 55 56 56 56 56 57 58 58 58 58
33 33 35 35 33 34 37 39 41 42 43 44 47 48 48 49 49 49 49 49 49 49 48 48 48 48 48 48 49 50 52 53 54 55 55 55 55 55 56 56 57 57 57 56
34 34 35 33 33 35 37 38 40 42 43 45 46 47 47 47 48 49 49 48 48 47 47 47 48 48 48 49 50 51 52 53 54 54 54 54 54 54 55 55 55 54 54 54
36 36 37 35 35 37 39 40 41 42 44 45 45 46 47 47 48 48 48 47 47 47 48 48 49 49 50 50 50 51 52 52 52 52 52 52 52 52 52 52 52 53 53 53
38 40 40 36 39 41 43 42 44 45 46 46 47 47 48 49 48 49 49 49 49 49 49 49 50 50 50 50 50 50 50 49 50 49 49 49 49 50 50 51 51 52 52 53
39 42 43 42 44 46 47 48 48 49 49 50 51 51 50 51 50 50 50 50 50 49 49 49 50 50 50 50 50 49 48 48 48 47 46 47 48 49 49 49 50 52 53 53
41 44 45 46 48 50 51 53 53 53 54 54 55 55 55 55 55 54 53 52 52 51 50 50 50 50 50 50 50 49 49 49 48 48 48 49 49 50 50 51 52 53 53 53
46 48 48 50 52 54 55 56 57 57 57 58 58 59 59 59 58 57 56 55 54 53 52 51 51 51 50 50 50 49 49 48 48 49 50 50 51 52 52 53 53 54 54 53
50 51 51 54 56 58 59 60 60 61 61 62 62 62 62 62 61 59 58 57 56 54 53 53 52 52 52 51 50 49 48 49 49 50 51 52 53 53 53 54 54 54 53 52
54 54 55 58 59 61 62 63 64 64 65 66 65 65 65 64 63 61 60 58 57 56 55 54 53 53 53 52 51 51 50 51 51 51 51 52 53 53 54 55 55 54 53 52
58 58 60 61 63 64 65 66 67 67 68 68 68 67 66 65 63 62 60 59 57 56 56 55 54 54 54 54 53 52 52 51 51 51 51 52 53 54 55 55 55 54 53 51
62 63 65 65 67 68 69 69 70 70 70 69 68 67 65 63 62 61 60 59 57 56 56 55 55 54 54 54 53 53 52 52 52 53 54 54 55 55 55 55 55 54 52 51
65 66 68 68 69 70 71 71 71 70 69 67 66 65 63 61 60 59 58 57 56 56 55 54 53 53 54 53 53 52 52 52 53 54 54 55 55 55 54 54 54 53 51 50
69 69 69 69 70 70 70 69 68 67 65 64 62 61 60 59 58 57 56 56 55 54 54 54 53 53 53 52 52 52 52 53 54 54 54 54 54 54 53 53 52 50 49 47
70 70 69 69 68 67 66 65 63 62 61 60 59 58 58 57 55 55 54 54 53 53 53 53 53 52 52 52 51 51 52 53 53 53 53 53 53 52 52 51 50 49 47 46
67 67 65 64 62 61 59 59 58 57 56 56 55 55 54 54 53 53 52 52 52 52 52 52 51 51 51 51 51 51 51 52 52 52 51 51 51 51 50 49 48 47 45 43
62 60 58 56 55 54 54 54 53 53 52 52 52 52 52 52 51 51 51 51 52 52 51 51 50 50 50 50 50 50 50 50 51 51 51 51 50 49 49 48 47 45 43 41
55 53 52 52 51 50 50 50 50 50 50 51 51 51 51 51 51 51 50 50 50 49 49 49 48 48 48 49 49 49 50 50 50 50 50 49 49 48 48 47 45 43 41 39
50 49 49 48 48 48 48 48 49 50 51 51 51 51 51 52 51 51 49 49 48 47 46 46 46 46 46 47 48 49 49 49 49 49 49 49 48 47 47 45 43 41 38 35
47 46 46 47 47 47 48 48 49 49 50 51 51 51 51 51 50 49 48 47 47 46 44 44 44 45 45 46 47 48 48 48 48 48 48 48 47 46 44 42 39 36 33 30
46 45 45 46 46 47 48 49 49 49 49 50 50 50 50 49 48 47 46 45 44 44 44 43 43 44 45 45 46 47 47 47 47 46 46 45 43 43 40 37 33 30 27 24
45 46 46 46 46 46 47 48 48 49 49 49 50 49 48 47 46 44 44 44 42 42 42 42 42 43 44 44 45 45 45 45 44 43 42 40 38 36 33 30 27 23 20 19
45 46 46 46 47 46 46 47 47 48 48 48 47 47 46 45 44 42 41 41 41 41 40 40 40 41 42 42 43 43 43 42 41 39 38 35 33 30 27 23 21 18 15 14
45 45 45 46 47 46 46 47 47 47 47 46 45 45 45 43 41 41 40 39 39 39 38 38 39 39 40 41 41 41 40 39 38 37 34 31 28 25 21 19 17 14 12 11
44 44 45 46 46 47 46 46 46 45 45 44 43 43 43 42 40 39 38 38 37 36 36 36 37 37 38 38 39 38 37 36 35 32 29 26 23 21 19 17 14 12 9 8
44 44 44 45 45 45 45 44 44 44 43 42 41 41 40 40 39 38 37 36 35 35 34 34 34 35 35 36 37 35 33 32 30 28 25 23 20 18 16 14 11 9 6 5
43 43 43 43 43 44 44 44 43 43 43 42 41 39 38 37 36 35 35 34 33 33 32 32 32 33 34 34 33 31 30 28 26 24 22 19 17 15 12 11 9 6 4 3
Wind_Direction
299 300 300 301 305 304 302 302 303 306 305 307 304 306 308 308 307 306 305 304 303 303 301 300 299 298 298 297 296 295 294 294 293 293 293 293 292 292 293 294 295 296 296 297
299 299 299 302 305 301 301 302 303 305 305 304 305 307 308 308 307 307 306 306 305 303 302 302 301 300 299 299 298 297 296 295 294 294 293 293 293 293 293 294 296 296 297 297
298 298 299 303 303 301 301 302 302 303 304 304 306 307 307 307 307 307 306 306 305 304 303 302 302 302 301 300 299 298 297 296 295 294 293 292 292 293 293 294 296 297 297 297
300 300 302 307 305 303 303 304 303 303 304 306 308 308 307 308 307 307 307 306 304 303 303 303 302 301 301 300 299 299 299 298 297 296 294 293 293 293 294 294 295 297 298 298
299 300 302 305 303 302 303 304 303 304 306 306 307 307 308 308 308 308 308 306 305 304 303 302 301 300 299 298 298 299 299 299 299 297 296 294 294 294 294 294 295 297 298 298
299 299 302 306 303 302 303 302 303 305 306 306 306 306 307 307 306 306 305 305 304 304 303 302 301 301 300 299 298 298 299 299 298 298 296 295 296 296 295 295 297 298 299 298
297 298 300 301 301 301 301 302 303 304 305 305 305 305 305 304 304 304 304 304 303 303 303 302 301 301 300 300 300 300 300 299 298 297 296 296 296 296 296 296 297 298 298 298
296 297 299 298 298 298 299 300 301 302 302 302 302 302 302 302 302 302 302 302 302 301 301 302 301 300 299 300 301 301 300 299 298 297 297 297 297 296 297 297 297 297 298 298
294 295 296 295 295 296 297 298 299 299 299 300 300 300 300 300 301 301 301 300 300 300 300 300 300 300 299 299 300 301 300 299 299 298 298 298 298 298 298 298 298 298 298 298
291 291 291 292 293 294 295 296 296 297 298 298 298 298 298 299 299 299 300 299 299 298 299 299 299 298 298 299 299 300 300 300 300 300 299 299 299 299 299 299 299 298 298 297
289 290 290 291 292 293 293 294 294 295 296 296 296 297 297 298 298 298 298 298 298 298 298 297 297 297 298 298 298 299 299 300 300 301 301 300 300 300 300 299 299 298 297 296
290 291 291 292 292 292 292 293 294 294 295 295 296 296 297 297 297 297 297 297 297 298 298 297 297 297 298 299 299 299 299 299 299 300 301 301 301 301 300 300 299 298 296 294
289 289 290 291 291 291 292 293 294 295 295 296 296 296 296 296 296 296 296 297 298 298 298 298 298 298 298 299 299 299 299 299 300 301 301 301 301 301 300 300 300 299 297 294
288 289 289 290 291 292 293 294 294 295 295 295 295 295 295 296 296 297 297 298 298 298 298 298 298 299 299 300 300 300 301 301 302 302 302 302 302 302 301 301 300 299 297 294
289 290 291 292 293 294 294 294 295 295 295 295 295 295 295 296 297 298 298 298 298 298 298 298 299 300 300 300 301 302 302 303 303 304 304 304 303 303 303 302 302 300 298 295
291 292 293 294 294 295 295 295 295 295 294 294 294 295 296 297 297 298 298 299 299 299 299 299 300 300 300 301 302 303 304 304 305 305 305 305 305 305 305 304 303 302 299 296
292 293 294 294 294 295 295 295 294 295 295 294 295 296 296 297 298 298 299 300 300 301 301 301 301 301 301 302 304 305 305 306 306 306 306 306 306 306 306 305 304 302 299 297
293 293 294 294 294 294 294 294 295 295 295 296 296 297 298 298 299 299 300 300 300 301 302 303 303 303 303 304 305 306 306 307 307 307 307 307 307 306 306 305 303 301 298 296
292 292 292 292 293 293 294 294 295 296 296 296 297 298 298 299 299 300 301 301 301 301 302 302 303 304 305 306 307 308 308 308 308 308 308 308 308 307 306 305 302 300 298 295
289 290 291 292 293 294 295 296 296 297 298 298 298 298 299 299 300 300 301 301 302 302 303 303 304 305 306 308 309 309 310 310 310 310 310 310 310 309 307 305 302 299 295 292
288 290 291 293 294 296 297 297 298 299 299 299 299 299 299 299 300 301 301 301 302 303 304 305 306 307 308 310 310 311 311 312 313 312 312 311 311 311 309 306 302 297 292 289
289 290 292 294 295 296 298 299 299 300 300 300 300 300 299 300 301 301 302 302 303 304 305 306 307 308 310 311 312 313 314 315 316 316 316 315 315 316 314 310 305 298 291 288
289 291 292 294 295 297 298 299 300 301 301 302 302 302 301 301 301 301 301 302 304 305 306 307 308 309 311 313 314 315 317 318 319 319 319 319 319 319 317 316 310 300 292 286
290 291 292 294 296 297 298 299 300 302 303 303 303 303 303 303 302 302 302 304 305 306 308 309 310 312 314 316 317 318 319 320 320 320 321 321 322 323 322 320 317 309 296 287
289 291 292 294 296 298 299 300 301 302 302 303 303 304 303 303 303 303 304 305 306 307 309 310 312 314 317 319 320 320 321 322 322 323 323 322 322 323 324 322 320 314 303 290
289 291 293 296 298 299 300 301 302 303 303 302 303 303 303 304 304 304 304 306 307 308 310 311 313 316 319 320 322 322 324 325 326 326 326 325 324 323 324 324 322 318 309 297
288 290 292 295 297 299 301 302 303 304 304 303 303 303 303 303 303 303 304 306 307 309 311 312 314 317 320 322 323 324 326 327 328 329 329 329 329 329 330 328 324 322 322 321
Height
5770 5767 5762 5759 5758 5754 5748 5744 5738 5735 5730 5727 5719 5714 5710 5705 5700 5694 5689 5684 5679 5674 5668 5663 5658 5653 5647 5642 5636 5631 5625 5620 5613 5607 5602 5596 5590 5584 5578 5571 5565 5558 5552 5545
5761 5758 5754 5751 5750 5745 5739 5735 5730 5725 5721 5716 5709 5704 5699 5693 5688 5682 5677 5671 5666 5660 5654 5649 5644 5638 5633 5627 5622 5616 5610 5604 5598 5592 5586 5580 5575 5569 5563 5556 5550 5543 5537 5530
5752 5749 5745 5745 5741 5736 5731 5727 5722 5716 5712 5705 5700 5694 5688 5683 5677 5671 5665 5659 5653 5647 5642 5636 5630 5624 5619 5613 5608 5601 5595 5589 5583 5577 5571 5565 5559 5554 5547 5541 5535 5528 5522 5515
5741 5739 5736 5737 5731 5725 5721 5717 5712 5706 5701 5696 5690 5684 5678 5672 5665 5659 5653 5647 5641 5635 5629 5623 5617 5611 5605 5599 5593 5587 5580 5574 5568 5562 5556 5550 5544 5538 5532 5526 5520 5514 5507 5501
5732 5727 5726 5726 5720 5714 5709 5706 5701 5696 5691 5685 5680 5674 5667 5660 5653 5647 5641 5635 5628 5622 5616 5610 5604 5598 5591 5585 5579 5572 5566 5560 5554 5547 5542 5536 5530 5524 5518 5512 5506 5500 5493 5486
5723 5717 5715 5715 5708 5702 5698 5694 5689 5684 5679 5673 5668 5662 5658 5649 5643 5636 5629 5623 5616 5610 5603 5597 5590 5584 5578 5571 5565 5558 5552 5546 5540 5534 5528 5522 5516 5510 5504 5498 5492 5485 5478 5471
5713 5707 5705 5703 5696 5690 5686 5682 5676 5670 5665 5660 5654 5648 5643 5637 5630 5623 5616 5610 5603 5597 5590 5583 5577 5571 5564 5558 5551 5545 5538 5532 5526 5520 5514 5508 5502 5496 5490 5484 5477 5471 5464 5457
5703 5698 5697 5689 5683 5678 5673 5668 5663 5657 5652 5647 5641 5634 5628 5622 5616 5609 5603 5596 5590 5584 5577 5570 5563 5557 5551 5544 5538 5531 5525 5518 5512 5506 5500 5493 5487 5481 5475 5468 5462 5456 5449 5443
5692 5688 5682 5675 5668 5664 5659 5654 5649 5643 5638 5632 5626 5620 5614 5608 5601 5595 5589 5582 5576 5570 5564 5556 5549 5542 5537 5530 5524 5518 5511 5504 5498 5492 5485 5478 5472 5466 5459 5453 5446 5440 5434 5428
5677 5674 5668 5661 5655 5650 5644 5639 5634 5628 5622 5616 5610 5604 5598 5592 5586 5579 5573 5567 5561 5555 5549 5543 5535 5528 5521 5516 5510 5504 5498 5491 5484 5477 5471 5464 5457 5450 5444 5437 5431 5425 5419 5413
5660 5658 5653 5648 5640 5635 5629 5623 5618 5612 5606 5599 5593 5588 5582 5576 5570 5564 5558 5551 5546 5540 5534 5527 5521 5514 5507 5501 5495 5489 5483 5476 5470 5463 5456 5449 5442 5435 5428 5422 5414 5409 5403 5397
5644 5640 5635 5632 5624 5618 5612 5607 5601 5595 5589 5582 5576 5571 5565 5559 5553 5547 5541 5536 5530 5524 5518 5512 5505 5499 5492 5486 5480 5474 5468 5461 5455 5448 5441 5434 5427 5420 5412 5406 5399 5392 5386 5382
5627 5623 5617 5614 5608 5601 5595 5589 5583 5577 5571 5565 5559 5553 5548 5543 5537 5531 5525 5520 5514 5508 5502 5496 5490 5483 5477 5470 5464 5458 5452 5446 5440 5433 5426 5419 5412 5404 5398 5391 5383 5377 5371 5366
5608 5604 5601 5595 5590 5584 5577 5571 5566 5560 5554 5548 5542 5537 5531 5526 5521 5515 5509 5504 5498 5493 5486 5480 5474 5468 5461 5456 5450 5443 5437 5431 5424 5418 5411 5403 5396 5389 5382 5375 5369 5362 5356 5351
5589 5584 5580 5576 5571 5565 5560 5554 5549 5543 5538 5532 5526 5521 5516 5511 5506 5500 5494 5488 5483 5478 5471 5465 5459 5453 5447 5441 5435 5429 5423 5416 5409 5403 5396 5388 5381 5374 5366 5360 5353 5348 5342 5337
5572 5566 5561 5557 5553 5548 5543 5538 5533 5528 5522 5517 5512 5506 5501 5496 5491 5486 5480 5474 5468 5463 5456 5450 5445 5439 5433 5427 5421 5416 5409 5402 5395 5388 5381 5374 5367 5359 5352 5345 5339 5334 5328 5324
5555 5550 5545 5541 5536 5532 5527 5522 5517 5512 5507 5502 5497 5492 5487 5482 5477 5472 5466 5460 5454 5448 5442 5436 5431 5425 5419 5413 5407 5402 5395 5389 5381 5374 5367 5360 5352 5345 5338 5332 5326 5320 5316 5311
5538 5534 5530 5526 5521 5517 5513 5508 5503 5498 5493 5488 5483 5479 5473 5468 5463 5458 5453 5447 5441 5435 5429 5423 5417 5412 5406 5400 5394 5388 5382 5375 5368 5360 5353 5345 5338 5331 5324 5318 5312 5307 5303 5299
5524 5520 5516 5512 5507 5503 5499 5495 5490 5485 5480 5475 5470 5465 5460 5454 5449 5444 5439 5434 5428 5423 5418 5411 5405 5400 5394 5388 5381 5375 5368 5362 5355 5347 5339 5332 5324 5317 5311 5304 5299 5294 5290 5287
5511 5507 5503 5499 5494 5490 5486 5481 5477 5472 5467 5461 5456 5451 5446 5441 5436 5431 5426 5421 5415 5410 5405 5400 5394 5389 5383 5377 5370 5363 5356 5349 5341 5334 5326 5319 5311 5304 5297 5291 5286 5282 5279 5277
5498 5494 5490 5487 5483 5478 5473 5468 5463 5459 5454 5448 5443 5438 5433 5428 5423 5418 5413 5409 5404 5398 5394 5388 5383 5377 5371 5365 5358 5351 5344 5337 5329 5321 5314 5306 5299 5292 5285 5279 5274 5271 5269 5268
5485 5482 5478 5474 5470 5466 5461 5456 5451 5446 5441 5436 5430 5425 5420 5416 5411 5406 5402 5396 5393 5388 5383 5377 5372 5366 5360 5354 5347 5340 5333 5325 5317 5310 5302 5295 5288 5281 5275 5270 5266 5264 5262 5262
5472 5468 5465 5461 5457 5453 5449 5444 5438 5433 5428 5423 5418 5412 5407 5403 5398 5394 5391 5387 5381 5377 5372 5367 5361 5356 5350 5343 5337 5329 5322 5315 5308 5300 5293 5287 5280 5274 5269 5264 5261 5258 5257 5257
5458 5455 5452 5448 5444 5440 5436 5432 5427 5422 5416 5411 5406 5400 5395 5391 5388 5383 5379 5375 5371 5366 5362 5357 5352 5346 5340 5334 5327 5320 5313 5306 5299 5292 5286 5280 5274 5269 5265 5261 5258 5255 5254 5254
5445 5442 5439 5435 5431 5427 5423 5419 5415 5410 5405 5400 5396 5390 5385 5380 5377 5373 5370 5366 5361 5357 5353 5348 5343 5337 5332 5325 5319 5312 5305 5298 5292 5285 5280 5274 5270 5266 5262 5258 5256 5254 5252 5252
5431 5428 5425 5422 5418 5414 5410 5406 5402 5397 5392 5388 5385 5380 5375 5371 5367 5363 5360 5356 5352 5348 5344 5340 5335 5330 5324 5318 5312 5305 5299 5292 5286 5280 5275 5270 5266 5263 5259 5257 5254 5253 5252 5251
5418 5415 5413 5410 5406 5402 5398 5394 5390 5385 5381 5376 5373 5370 5365 5362 5358 5354 5351 5347 5344 5340 5336 5332 5327 5323 5317 5311 5305 5299 5293 5287 5282 5276 5271 5267 5264 5261 5258 5256 5254 5252 5252 5251